Friday, March 19, 2010

Perfect Weather Warning....

ALABAMA REGIONAL WEATHER ROUNDUP
NATIONAL WEATHER SERVICE BIRMINGHAM AL
200 PM CDT FRI MAR 19 2010

NOTE: "FAIR" INDICATES FEW OR NO CLOUDS BELOW 12,000 FEET
WITH NO SIGNIFICANT WEATHER AND/OR OBSTRUCTIONS TO VISIBILITY.

THE REMARK "TC" DENOTES TEMPERATURE IN DEGREES CELSIUS.

NORTH ALABAMA

CITY SKY/WX TMP DP RH WIND PRES REMARKS
MUSCLE SHOALS SUNNY 67 36 31 VRB3 30.04F
HUNTSVILLE SUNNY 68 35 29 SW3 30.04F
DECATUR SUNNY 67 32 27 CALM 30.05F
HALEYVILLE FAIR 67 33 28 VRB6 30.05F
GADSDEN SUNNY 66 36 32 CALM 30.03F
$$

WEST CENTRAL ALABAMA

CITY SKY/WX TMP DP RH WIND PRES REMARKS
TUSCALOOSA SUNNY 71 32 23 SE7 30.04F
$$

CENTRAL ALABAMA

CITY SKY/WX TMP DP RH WIND PRES REMARKS
BIRMINGHAM MOSUNNY 68 34 28 CALM 30.05F
MONTGOMERY MOSUNNY 70 36 28 W6 30.05F
SHELBY CO ARPT SUNNY 69 37 30 CALM 30.04F
MAXWELL AFB MO SUNNY 71 38 30 VRB3 30.03F

EAST CENTRAL ALABAMA

CITY SKY/WX TMP DP RH WIND PRES REMARKS
ANNISTON SUNNY 68 33 27 SE6 30.03F
ALEXANDER CITY SUNNY 70 34 26 CALM 30.03F
AUBURN SUNNY 70 34 26 NW6 30.00F
$$

SOUTHWEST ALABAMA

CITY SKY/WX TMP DP RH WIND PRES REMARKS
MOBILE PTSUNNY 67 39 35 CALM 30.07F
BROOKLEY FIELD MOSUNNY 68 39 34 S8 30.08F
EVERGREEN SUNNY 70 36 28 VRB5 30.05F
$$

SOUTHEAST ALABAMA

CITY SKY/WX TMP DP RH WIND PRES REMARKS
DOTHAN SUNNY 71 39 31 VRB3 30.07F
OZARK MOSUNNY 71 41 33 SW8 30.03F
TROY SUNNY 72 37 28 VRB3 30.04F
EUFAULA FAIR 74 37 26 S7 30.01F


...

2 comments:

Matt Graves said...

If this isn't nice, I don't know what is. :]

Bamawx said...

Absolutely!